Change the Weather History Date:

Tuesday, January 3, 2012

  Actual Average Record
Temperature  
Mean Temperature 20 °F -  
Max Temperature 30 °F 27 °F 53 °F (2007)
Min Temperature 10 °F 8 °F -20 °F (1979)
Degree Days  
Heating Degree Days 45    
Moisture  
Dew Point 8 °F    
Average Humidity 60    
Maximum Humidity 87    
Minimum Humidity 35    
Precipitation  
Precipitation 0.00 in - - ()
Sea Level Pressure  
Sea Level Pressure 30.23 in    
Wind  
Wind Speed 3 mph (SSE)    
Max Wind Speed 14 mph    
Max Gust Speed 20 mph    
Visibility 10 miles    
Events      
Averages and records for this station are not official NWS values.
T = Trace of Precipitation, MM = Missing Value Source: NWS Daily Summary

Daily Weather History Graph

Daily Weather History Graph

Search for Another Location

Airport or City:

Trip Planner

Search our weather history database for the weather conditions in past years. The results will help you decide how hot, cold, wet, or windy it might be!

Date:

Astronomy

Jan. 03, 2012 Rise Set
Actual Time 7:35 AM CST 4:41 PM CST
Civil Twilight 7:03 AM CST 5:14 PM CST
Nautical Twilight 6:28 AM CST 5:49 PM CST
Astronomical Twilight 5:53 AM CST 6:24 PM CST
Moon 12:31 PM CST (1/3) 2:24 AM CST (1/3)
Length of Visible Light 10h 10m
Length of Day
9h 05m
Waxing Gibbous, 73% of the Moon is Illuminated
Jan 3
Waxing Gibbous
Jan 9
Full
Jan 16
Last Quarter
Jan 23
New
Jan 30
First Quarter

Hourly Weather History & Observations

Time (CST) Temp. Windchill Dew Point Humidity Pressure Visibility Wind Dir Wind Speed Gust Speed Precip Events Conditions
12:15 AM 14.9 °F - 6.4 °F 69% 30.47 in 10.0 mi Calm Calm - N/A   Clear
12:35 AM 13.6 °F - 6.4 °F 73% 30.46 in 10.0 mi Calm Calm - N/A   Clear
12:55 AM 12.4 °F - 6.6 °F 78% 30.46 in 10.0 mi Calm Calm - N/A   Clear
1:15 AM 12.2 °F - 6.6 °F 78% 30.46 in 10.0 mi Calm Calm - N/A   Clear
1:35 AM 11.8 °F - 6.8 °F 80% 30.46 in 10.0 mi Calm Calm - N/A   Clear
1:55 AM 11.1 °F - 6.8 °F 83% 30.45 in 10.0 mi Calm Calm - N/A   Clear
2:35 AM 11.3 °F - 6.6 °F 81% 30.44 in 10.0 mi Calm Calm - N/A   Clear
2:55 AM 12.4 °F - 8.1 °F 83% 30.44 in 10.0 mi Calm Calm - N/A   Clear
3:15 AM 13.6 °F - 8.4 °F 80% 30.43 in 10.0 mi Calm Calm - N/A   Clear
3:35 AM 14.4 °F - 8.2 °F 77% 30.42 in 10.0 mi Calm Calm - N/A   Clear
3:55 AM 14.4 °F - 8.2 °F 77% 30.42 in 10.0 mi Calm Calm - N/A   Clear
4:15 AM 13.8 °F - 7.9 °F 77% 30.42 in 10.0 mi Calm Calm - N/A   Clear
4:35 AM 13.1 °F - 7.5 °F 78% 30.41 in 10.0 mi Calm Calm - N/A   Clear
5:35 AM 11.7 °F - 7.7 °F 84% 30.39 in 10.0 mi Calm Calm - N/A   Clear
6:15 AM 10.6 °F - 7.0 °F 85% 30.38 in 10.0 mi Calm Calm - N/A   Clear
6:35 AM 10.8 °F - 7.5 °F 87% 30.38 in 10.0 mi Calm Calm - N/A   Clear
6:55 AM 11.1 °F - 7.5 °F 85% 30.37 in 10.0 mi Calm Calm - N/A   Clear
7:15 AM 11.1 °F - 7.5 °F 85% 30.36 in 10.0 mi Calm Calm - N/A   Clear
7:35 AM 10.9 °F - 7.5 °F 86% 30.37 in 10.0 mi Calm Calm - N/A   Clear
7:55 AM 11.3 °F - 7.7 °F 85% 30.37 in 10.0 mi Calm Calm - N/A   Clear
8:15 AM 12.2 °F - 8.4 °F 85% 30.38 in 10.0 mi Calm Calm - N/A   Clear
8:35 AM 12.9 °F - 9.0 °F 84% 30.40 in 10.0 mi Calm Calm - N/A   Clear
9:15 AM 15.4 °F 8.1 °F 9.9 °F 79% 30.37 in 10.0 mi ESE 4.6 mph - N/A   Clear
9:35 AM 17.1 °F 10.0 °F 8.8 °F 70% 30.37 in 10.0 mi South 4.6 mph - N/A   Clear
9:55 AM 18.3 °F 6.6 °F 9.1 °F 67% 30.35 in 10.0 mi South 10.4 mph - N/A   Clear
10:15 AM 18.9 °F 10.8 °F 8.2 °F 63% 30.35 in 10.0 mi South 5.8 mph - N/A   Clear
10:35 AM 20.1 °F 9.5 °F 8.4 °F 61% 30.33 in 10.0 mi SSE 9.2 mph - N/A   Clear
10:55 AM 20.7 °F 11.0 °F 8.1 °F 58% 30.31 in 10.0 mi South 8.1 mph - N/A   Clear
11:15 AM 21.7 °F 14.3 °F 7.7 °F 55% 30.29 in 10.0 mi SSE 5.8 mph - N/A   Clear
11:35 AM 22.8 °F 15.5 °F 7.0 °F 51% 30.27 in 10.0 mi South 5.8 mph - N/A   Clear
11:55 AM 24.1 °F 13.7 °F 7.3 °F 49% 30.23 in 10.0 mi SE 10.4 mph - N/A   Clear
12:15 PM 24.8 °F 16.1 °F 7.5 °F 48% 30.20 in 10.0 mi SE 8.1 mph - N/A   Clear
12:35 PM 26.1 °F 17.6 °F 5.4 °F 41% 30.19 in 10.0 mi SSE 8.1 mph - N/A   Clear
12:55 PM 27.3 °F 19.1 °F 4.8 °F 38% 30.18 in 10.0 mi SSE 8.1 mph 17.3 mph N/A   Clear
1:15 PM 27.9 °F 19.1 °F 5.4 °F 38% 30.17 in 10.0 mi South 9.2 mph - N/A   Clear
1:35 PM 28.0 °F 18.6 °F 6.1 °F 39% 30.14 in 10.0 mi SE 10.4 mph - N/A   Clear
1:55 PM 28.6 °F 19.3 °F 6.3 °F 39% 30.12 in 10.0 mi SE 10.4 mph - N/A   Clear
2:15 PM 28.9 °F 19.8 °F 5.5 °F 37% 30.11 in 10.0 mi SSE 10.4 mph - N/A   Clear
2:35 PM 29.5 °F 21.8 °F 4.8 °F 35% 30.08 in 10.0 mi SSE 8.1 mph 17.3 mph N/A   Clear
2:55 PM 29.5 °F 19.9 °F 5.5 °F 36% 30.07 in 10.0 mi SE 11.5 mph - N/A   Clear
3:15 PM 29.5 °F 21.8 °F 6.3 °F 37% 30.05 in 10.0 mi ESE 8.1 mph - N/A   Clear
3:35 PM 29.3 °F 18.6 °F 6.3 °F 38% 30.02 in 10.0 mi SE 13.8 mph 19.6 mph N/A   Clear
3:55 PM 29.3 °F 21.5 °F 6.8 °F 39% 30.02 in 10.0 mi SE 8.1 mph 18.4 mph N/A   Clear
4:15 PM 29.1 °F 24.1 °F 8.1 °F 41% 30.04 in 10.0 mi SE 4.6 mph - N/A   Clear
4:35 PM 29.1 °F 23.0 °F 8.6 °F 42% 30.04 in 10.0 mi SE 5.8 mph - N/A   Clear
4:55 PM 29.1 °F - 8.6 °F 42% 30.03 in 10.0 mi Calm Calm - N/A   Clear
5:15 PM 29.1 °F - 8.6 °F 42% 30.03 in 10.0 mi Calm Calm - N/A   Clear
5:35 PM 29.3 °F 22.3 °F 8.8 °F 42% 30.04 in 10.0 mi South 6.9 mph - N/A   Clear
6:15 PM 29.1 °F 20.6 °F 9.7 °F 44% 30.02 in 10.0 mi SSE 9.2 mph - N/A   Clear
6:35 PM 29.1 °F 23.0 °F 10.0 °F 45% 30.03 in 10.0 mi South 5.8 mph - N/A   Clear
6:55 PM 29.3 °F 22.3 °F 10.2 °F 45% 30.03 in 10.0 mi SSE 6.9 mph - N/A   Clear
7:15 PM 29.3 °F 22.3 °F 10.4 °F 45% 30.02 in 10.0 mi SSE 6.9 mph - N/A   Clear
7:35 PM 29.3 °F 25.6 °F 10.4 °F 45% 29.99 in 10.0 mi SE 3.5 mph - N/A   Clear
7:55 PM 29.5 °F 25.9 °F 10.4 °F 45% 29.99 in 10.0 mi South 3.5 mph - N/A   Clear
8:15 PM 29.8 °F 22.2 °F 10.4 °F 44% 29.98 in 10.0 mi SSE 8.1 mph - N/A   Clear
8:35 PM 30.0 °F 23.2 °F 10.6 °F 44% 29.98 in 10.0 mi South 6.9 mph - N/A   Clear
8:55 PM 29.7 °F 26.1 °F 10.9 °F 46% 29.98 in 10.0 mi South 3.5 mph - N/A   Clear
9:15 PM 29.7 °F 23.7 °F 11.1 °F 46% 29.97 in 10.0 mi South 5.8 mph - N/A   Clear
9:35 PM 29.8 °F 24.9 °F 11.3 °F 46% 29.95 in 10.0 mi South 4.6 mph - N/A   Clear
9:55 PM 30.0 °F 25.2 °F 11.3 °F 46% 29.94 in 10.0 mi SSE 4.6 mph - N/A   Clear
10:15 PM 29.7 °F - 12.0 °F 48% 29.93 in 10.0 mi Calm Calm - N/A   Clear
10:35 PM 29.8 °F 26.3 °F 12.2 °F 48% 29.92 in 10.0 mi South 3.5 mph - N/A   Clear
11:15 PM 29.1 °F - 13.3 °F 52% 29.94 in 10.0 mi Calm Calm - N/A   Clear
11:35 PM 29.1 °F - 13.3 °F 52% 29.93 in 10.0 mi Calm Calm - N/A   Clear
11:55 PM 29.5 °F - 13.3 °F 51% 29.93 in 10.0 mi Calm Calm - N/A   Clear